SCP
0 0 0 0 0 0 0 0 0 0 0 0 0 0 0 0 0 0 0 0 0 0 0 0 0 0 0 0 0 0 0 0 0 0 0 0 0 0 0 0 0 0 0
0 0 0 0 0 0 0 0 0 0 0 0 0 0 0 0 0 0 0 0 0 0 0 0 0 0 0 0 0 0 0 0 0 0 0 0 0 0 0 0 0 0 0
0 0 0 0 0 0 0 0 0 0 0 0 0 0 0 0 0 0 0 0 0 0 0 0 0 0 0 0 0 0 0 0 0 0 0 0 0 0 0 0 0 0 0
1 1 0 1 1 1 0 0 0 0 0 0 0 0 0 0 0 0 0 0 0 0 0 0 0 0 0 0 0 0 0 0 0 0 0 0 0 0 0 0 0 0 0
1 1 1 1 1 1 0 0 0 0 0 0 0 0 0 0 0 0 0 0 0 0 0 0 0 0 0 0 0 0 0 0 0 0 0 0 0 0 0 0 0 0 0
1 1 1 1 1 1 1 0 0 0 0 0 0 0 0 0 0 0 0 0 0 0 0 0 0 0 0 0 0 0 0 0 0 0 0 0 0 0 0 0 0 0 0
1 1 1 1 1 1 1 0 0 0 0 0 0 0 0 0 0 0 0 0 -0 -0 0 -0 -0 -0 -0 -0 -0 0 0 0 0 0 0 0 0 0 0 0 0 0 0
1 1 1 1 1 1 1 0 0 0 0 0 0 0 0 0 0 0 0 -0 -0 -0 -0 -0 -0 -0 -0 -0 -0 -0 0 0 0 0 0 0 0 0 0 0 0 0 0
1 1 1 1 1 1 0 0 0 0 0 0 0 0 0 0 0 0 0 -0 -0 -0 -0 -0 -0 -0 -0 -0 -0 -0 0 0 0 0 0 0 0 0 0 0 0 0 0
1 1 1 1 1 1 0 0 0 0 0 0 0 0 0 0 0 0 0 -0 -0 -0 -0 -0 -0 -0 -0 -0 -0 -0 0 0 0 0 0 0 0 0 0 0 0 0 0
1 1 1 1 1 1 0 0 0 0 0 0 0 0 0 0 0 -0 -0 -0 -0 -0 -0 -0 -0 -0 -0 -0 -0 -0 0 0 0 0 0 0 0 0 0 0 0 0 0
1 1 1 1 1 1 1 0 0 0 0 0 0 0 0 0 -0 -0 -0 -0 -0 -0 -0 -0 -0 -0 -0 -0 0 0 0 0 0 0 0 0 0 0 0 0 0 0 0
1 1 1 1 1 1 1 0 0 0 0 0 0 0 0 -0 -0 -0 -0 -0 -0 -0 -0 -0 -0 -0 -0 0 0 0 0 0 0 0 0 0 0 0 0 0 0 0 0
1 1 1 1 1 1 1 0 0 0 0 0 0 0 0 0 -0 -0 -0 -0 -0 -0 -0 -0 -0 -0 -0 0 0 0 0 0 0 0 0 0 1 1 1 1 1 1 1
1 1 1 1 1 1 1 0 0 0 0 0 0 0 0 0 0 -0 -0 -0 -0 -0 0 -0 -0 -0 0 0 0 0 0 0 0 0 0 0 1 1 1 1 1 1 1
1 1 1 1 1 1 0 0 0 0 0 0 0 0 0 0 0 0 0 0 0 0 0 0 0 0 0 0 0 0 0 0 0 0 0 0 1 1 1 1 1 1 1
1 1 1 1 1 1 0 0 0 0 0 0 0 0 0 0 0 0 0 0 0 0 0 0 0 0 0 0 0 0 0 0 0 0 0 0 0 0 1 1 1 1 1
1 1 1 1 1 1 0 0 0 0 0 0 0 0 0 0 0 0 0 0 0 0 0 0 0 0 0 0 0 0 0 0 0 0 0 0 0 0 0 1 1 1 1
1 1 1 1 1 1 1 1 1 0 0 0 0 0 0 0 0 0 0 0 0 0 0 0 0 0 0 0 0 0 0 0 0 0 0 0 0 0 0 0 0 0 0
1 1 1 1 1 1 1 1 1 1 0 0 0 0 0 0 0 0 0 0 0 0 0 0 0 0 0 0 0 0 0 0 0 0 0 0 0 0 0 0 0 0 0
1 1 1 1 1 1 1 1 1 1 0 0 0 0 0 0 0 0 0 0 0 0 0 0 0 0 0 0 0 0 0 0 0 0 0 0 0 0 0 0 0 0 0
1 1 1 1 1 1 1 1 1 1 0 0 0 0 0 0 0 0 0 0 0 0 0 0 0 0 0 0 0 0 0 0 0 0 0 0 0 0 0 0 0 0 0
1 1 1 1 1 1 1 1 1 1 0 0 0 0 0 0 0 0 0 0 0 0 0 0 0 0 0 0 0 0 0 0 0 0 0 0 0 0 0 0 0 0 0
1 1 1 1 1 1 1 1 1 1 0 0 0 0 0 0 0 0 0 0 0 0 0 0 0 0 0 0 0 0 0 0 0 0 0 0 0 0 0 0 0 0 0
0 1 1 1 1 1 1 1 1 0 0 0 0 0 0 0 0 0 0 0 0 0 0 0 0 0 0 0 0 0 0 0 0 0 0 0 0 0 0 0 0 0 0
0 0 1 1 0 0 0 1 0 0 0 0 0 0 0 0 0 0 0 0 0 0 0 0 0 0 0 0 0 0 0 0 0 0 0 0 0 0 0 0 0 0 0
Wind_Speed
10 12 17 18 18 18 18 19 18 18 18 18 18 17 17 17 17 16 16 15 14 14 14 14 14 14 14 14 15 15 15 15 15 15 15 14 14 14 15 15 14 11 15
15 15 19 19 19 19 18 19 18 18 18 17 17 17 16 16 16 15 15 14 14 14 14 13 13 13 13 13 13 14 14 13 13 14 14 13 13 13 13 14 13 9 14
18 15 18 19 19 19 19 19 18 18 18 17 17 16 16 16 15 14 14 13 13 13 13 13 12 12 12 12 12 12 11 11 11 12 11 6 8 13 14 14 14 13 12
18 14 16 20 20 20 19 19 18 18 18 17 17 16 16 15 14 14 14 13 12 12 12 12 11 11 10 10 10 10 9 8 7 7 4 4 6 13 14 14 13 12 11
16 13 16 22 20 20 20 19 19 19 18 17 17 16 15 15 14 13 13 13 12 12 11 11 10 9 9 9 8 7 6 5 4 4 3 3 5 11 13 13 12 11 11
15 13 17 21 21 20 20 19 19 19 18 17 17 16 15 14 13 13 13 12 12 11 11 10 9 8 7 7 6 5 5 4 3 2 3 4 4 10 12 12 12 11 10
13 12 15 19 20 20 20 20 19 18 17 17 16 15 14 13 12 12 12 12 11 10 10 9 8 7 5 5 4 3 4 4 2 1 4 4 5 10 11 11 11 10 10
15 12 13 19 21 20 20 19 18 17 17 16 16 15 14 13 12 12 11 11 10 10 9 8 7 6 4 2 1 1 3 4 4 3 4 4 7 11 11 10 10 10 9
13 13 11 12 15 18 18 18 17 17 16 16 15 15 14 13 13 13 11 11 10 9 9 8 6 5 3 2 1 2 2 3 3 2 5 4 9 12 12 11 10 10 9
11 11 11 10 10 10 12 17 18 17 16 16 16 16 15 14 13 13 11 10 10 10 9 8 6 5 4 4 4 4 3 2 2 2 3 5 10 12 12 11 11 10 10
12 10 10 10 9 9 9 13 15 16 16 15 14 16 13 6 6 8 10 11 11 10 9 8 7 6 5 5 6 6 4 1 2 2 3 8 12 12 12 12 11 11 10
14 12 9 10 10 9 9 8 6 8 8 7 6 8 5 5 5 7 9 12 12 10 9 9 8 7 5 3 5 6 2 2 2 3 4 11 13 13 13 12 12 12 11
13 12 10 9 9 9 6 6 4 4 5 5 7 7 5 4 3 4 3 5 6 7 4 4 4 3 3 2 2 2 3 2 2 3 5 12 13 13 13 12 12 12 11
11 11 11 10 9 8 7 6 6 5 5 5 6 7 5 4 4 3 3 3 3 2 3 2 2 3 3 3 3 3 3 2 2 2 4 12 13 13 12 12 12 11 11
11 10 11 11 11 9 8 7 7 6 6 6 6 6 6 5 5 4 3 3 4 3 3 3 3 3 3 3 3 2 2 2 2 2 2 9 10 10 10 11 11 11 10
13 12 11 12 12 11 9 8 7 6 6 6 6 7 7 5 5 4 4 4 3 3 3 3 3 3 2 1 1 1 2 1 2 2 2 4 9 9 9 9 9 9 9
12 11 11 11 12 12 11 10 8 7 6 5 5 6 6 6 5 4 4 3 3 3 3 2 2 2 1 1 1 1 1 1 1 2 2 2 3 6 8 7 7 7 7
8 8 9 10 9 9 9 8 6 6 6 5 4 4 5 5 5 4 3 3 2 2 2 2 1 1 1 1 1 1 1 2 2 2 1 1 1 1 3 5 6 5 5
5 5 5 6 7 7 7 5 5 5 5 3 3 3 3 4 4 4 3 2 2 2 1 1 2 1 1 1 0 1 2 2 2 2 3 2 2 1 1 2 3 4 4
6 5 3 4 4 5 4 4 4 4 4 3 3 3 3 3 4 4 3 3 3 2 2 2 2 2 1 1 2 3 3 3 3 3 3 3 3 3 3 3 2 3 5
7 5 2 3 4 4 5 5 5 4 4 4 4 6 5 5 5 4 3 4 3 3 2 2 2 3 2 2 2 2 2 4 4 4 3 3 4 3 3 3 3 2 2
7 5 1 0 4 3 3 4 4 5 5 5 5 7 7 7 6 5 5 4 3 3 4 4 2 2 2 3 1 1 1 2 3 4 4 4 4 3 4 3 3 3 3
6 5 3 2 4 4 6 7 7 5 5 5 6 6 8 8 8 7 6 5 5 4 4 4 3 2 2 3 3 2 2 1 1 2 4 4 4 4 3 3 3 3 3
7 6 6 4 6 6 5 7 9 7 6 5 5 6 7 9 9 8 7 7 6 5 5 5 5 3 3 2 3 4 3 2 2 1 2 3 4 4 4 4 3 4 3
8 7 6 7 8 7 7 8 9 9 8 7 6 8 8 8 9 8 8 8 7 6 7 7 7 7 5 4 3 2 3 4 3 2 1 2 3 3 3 3 3 3 3
9 9 9 10 10 9 9 10 11 12 10 10 8 8 7 6 7 9 9 8 8 7 7 7 7 8 7 7 6 5 4 3 2 2 2 1 2 2 3 3 3 2 2
Wind_Direction
160 163 158 149 140 133 127 122 118 114 110 106 103 101 101 101 101 102 102 102 103 103 102 100 99 99 99 100 100 101 103 105 107 108 107 106 106 107 108 107 104 102 105
155 160 157 150 143 137 132 127 123 119 115 111 107 105 104 103 103 103 104 104 105 105 103 102 102 101 101 102 103 103 105 108 109 109 105 102 103 108 112 110 107 109 108
149 156 156 152 146 141 136 132 128 125 121 117 114 112 110 108 108 108 109 108 109 109 107 106 105 104 104 103 103 103 105 106 108 106 99 92 98 105 113 112 111 110 109
148 154 156 153 148 144 140 136 134 131 128 125 123 120 118 116 114 114 114 114 114 113 111 110 108 107 105 103 100 99 100 102 103 102 100 108 107 112 115 116 116 115 114
147 152 157 154 150 146 144 141 139 137 135 132 130 128 125 123 122 121 120 120 119 117 116 113 112 109 105 100 95 92 89 86 83 82 98 119 117 125 124 125 124 123 121
147 152 156 155 152 149 148 145 144 143 141 139 137 134 132 130 129 127 126 126 125 124 121 119 117 114 107 100 92 82 69 55 59 87 121 136 136 137 135 134 132 131 130
145 149 155 154 153 152 151 150 148 148 146 144 142 140 138 137 135 133 133 133 132 131 130 128 127 122 115 105 93 71 47 24 53 121 152 155 154 146 143 142 140 140 139
144 146 152 155 155 155 155 153 152 151 150 148 147 145 144 143 141 140 140 141 141 140 140 140 141 140 135 126 102 40 23 26 52 95 140 158 162 156 151 150 151 150 149
140 144 148 155 157 158 157 156 155 154 153 151 150 150 150 149 150 149 149 151 151 151 153 156 159 163 172 204 252 301 342 29 76 122 155 165 173 166 160 160 160 160 158
139 146 149 153 154 155 158 160 158 157 156 155 155 156 157 157 158 159 159 162 163 166 170 173 179 189 206 237 263 279 299 14 108 183 171 180 182 175 170 170 171 170 169
144 149 152 154 154 154 156 163 161 161 161 159 161 162 159 158 159 164 171 174 176 180 184 189 196 207 225 249 264 271 280 189 176 194 185 189 188 185 182 179 180 178 178
154 155 155 156 158 158 164 155 159 161 161 160 161 161 156 159 173 177 186 186 187 191 197 204 211 221 232 249 267 271 247 219 215 202 200 197 194 191 188 186 186 185 184
157 156 159 159 160 164 156 154 159 157 159 162 164 163 161 165 182 185 184 194 195 198 204 217 223 226 230 239 254 249 233 221 208 210 207 203 198 196 193 193 192 190 191
154 159 159 164 164 166 155 162 164 164 170 173 176 174 169 172 182 182 187 190 188 191 195 209 210 223 237 243 245 243 229 223 199 207 212 201 195 195 194 196 195 193 195
155 164 168 168 170 168 161 170 172 173 176 179 179 182 178 178 182 182 188 191 195 195 199 207 214 221 232 244 242 232 216 211 187 189 207 193 190 196 195 199 197 197 199
162 165 172 179 173 168 170 177 174 177 178 179 181 185 182 180 179 178 183 187 195 197 198 199 201 202 213 211 206 168 145 157 168 179 191 192 193 200 199 202 199 201 203
166 166 172 181 173 170 174 179 174 178 174 177 182 184 182 179 175 172 171 180 191 185 181 177 182 179 179 147 116 124 113 109 114 158 177 175 186 200 200 194 190 191 194
158 168 176 178 175 175 177 176 169 170 166 169 172 173 176 171 164 159 154 165 163 148 147 149 145 125 113 103 83 49 77 89 101 117 124 121 129 173 197 182 178 173 170
126 154 164 156 167 177 179 164 147 143 151 155 154 153 155 152 147 137 136 134 121 106 99 128 91 103 95 38 63 62 54 70 66 82 86 90 95 104 108 125 135 137 136
94 102 120 134 156 160 149 127 118 111 111 101 97 89 94 103 111 110 99 87 90 87 73 74 87 73 77 42 51 53 46 59 58 56 65 73 71 77 87 87 87 93 103
70 70 82 157 165 151 141 140 131 131 110 89 73 68 66 69 76 83 86 74 70 76 70 75 93 74 44 19 72 57 41 54 60 54 50 56 57 60 76 84 87 88 91
78 82 87 18 146 136 136 128 123 117 93 82 71 63 56 59 61 72 68 69 65 66 51 41 58 90 56 34 81 108 53 22 39 41 43 52 47 44 55 68 74 81 76
62 66 74 51 92 105 106 104 103 96 87 75 64 61 49 57 61 64 69 68 60 67 66 49 46 87 96 46 44 96 128 181 20 28 37 43 44 44 41 47 65 73 79
47 56 58 60 77 79 91 113 120 113 105 88 84 78 64 58 61 62 66 68 62 58 58 51 46 51 82 74 46 41 68 99 122 77 14 19 37 40 36 46 54 61 67
41 48 56 59 65 71 81 97 107 104 102 103 95 84 73 61 58 60 61 63 63 62 61 58 53 53 55 63 59 45 46 43 47 93 47 351 10 19 32 44 50 57 54
44 47 53 60 57 59 73 86 99 106 110 110 102 92 79 68 59 56 63 64 63 62 60 60 60 61 60 63 59 54 56 56 39 60 81 17 358 347 10 33 42 47 39